EW6113 Weather Reports


time (UTC)temp
C
wind
direction
speed
KPH
gust
KPH
rain 1hr
cm
rain 24hr
cm
rain mn
cm
humidity
%
barometer
mb
20260506191502 16 108 12.9 27.4 0.00 0.00 0.00 79 1019.1
20260506190002 16 119 11.3 25.7 0.00 0.00 0.00 80 1019.1
20260506184501 16 121 16.1 27.4 0.00 0.00 0.00 78 1019.1
20260506183002 16 108 14.5 22.5 0.00 0.00 0.00 79 1019.2
20260506181626 16 67 11.3 25.7 0.00 0.00 0.00 79 1019.3
20260506180111 16 48 12.9 20.9 0.00 0.00 0.00 78 1019.3
20260506174601 16 101 11.3 25.7 0.00 0.00 0.00 76 1019.2
20260506173129 16 67 11.3 20.9 0.00 0.00 0.00 76 1019.3
20260506171603 16 82 14.5 25.7 0.00 0.00 0.00 74 1019.2
20260506170104 16 88 12.9 20.9 0.00 0.00 0.00 75 1019.1
20260506164556 16 76 8.0 17.7 0.00 0.00 0.00 77 1019.0
20260506163055 16 46 4.8 14.5 0.00 0.00 0.00 77 1018.9
20260506161551 16 81 6.4 11.3 0.00 0.00 0.00 79 1019.0
20260506160059 15 82 6.4 11.3 0.00 0.00 0.00 79 1019.1
20260506154548 15 80 6.4 11.3 0.00 0.00 0.00 81 1019.0
20260506153043 14 97 3.2 9.7 0.00 0.00 0.00 85 1019.1
20260506151539 13 90 0.0 0.0 0.00 0.00 0.00 89 1019.3
20260506150035 12 90 0.0 1.6 0.00 0.00 0.00 92 1019.4
20260506144533 11 138 0.0 0.0 0.00 0.00 0.00 94 1019.3
20260506143035 11 209 0.0 0.0 0.00 0.00 0.00 95 1019.2
20260506141530 10 209 0.0 0.0 0.00 0.00 0.00 97 1018.9
20260506140033 9 209 0.0 0.0 0.00 0.00 0.00 96 1018.8
20260506134527 8 209 0.0 0.0 0.00 0.00 0.00 96 1018.7
20260506133027 8 209 1.6 4.8 0.00 0.00 0.00 96 1018.7
20260506131541 8 209 3.2 4.8 0.00 0.00 0.00 95 1018.5
20260506130035 8 75 0.0 0.0 0.00 0.00 0.00 95 1018.5
20260506124523 8 75 0.0 3.2 0.00 0.00 0.00 95 1018.4
20260506123022 8 75 1.6 4.8 0.00 0.00 0.00 95 1018.5
20260506121523 8 304 0.0 1.6 0.00 0.00 0.00 95 1018.3
20260506120021 8 304 1.6 4.8 0.00 0.00 0.00 95 1017.9
20260506114521 8 304 1.6 4.8 0.00 0.00 0.00 95 1018.0
20260506113015 8 323 0.0 0.0 0.00 0.00 0.00 95 1018.2
20260506111513 8 345 0.0 0.0 0.00 0.00 0.00 95 1018.2
20260506110012 8 345 0.0 0.0 0.00 0.00 0.00 94 1018.3
20260506104510 8 345 0.0 0.0 0.00 0.00 0.00 94 1018.3
20260506103011 8 345 0.0 0.0 0.00 0.00 0.00 94 1018.3
20260506101508 9 345 0.0 0.0 0.00 0.00 0.00 94 1018.2
20260506100007 9 345 0.0 0.0 0.00 0.00 0.00 94 1018.2
20260506094506 9 345 0.0 0.0 0.00 0.00 0.00 93 1018.1
20260506093006 10 345 0.0 0.0 0.00 0.00 0.00 93 1018.1
20260506091501 10 345 0.0 1.6 0.00 0.00 0.00 94 1018.1
20260506090059 10 345 1.6 4.8 0.00 0.00 0.00 93 1018.2
20260506084557 10 345 0.0 3.2 0.00 0.00 0.00 93 1018.4
20260506083103 10 38 0.0 0.0 0.00 0.00 0.00 92 1018.2
20260506081556 11 38 0.0 0.0 0.00 0.00 0.00 92 1018.4
20260506073048 12 38 0.0 3.2 0.00 0.00 0.00 92 1018.3
20260506071547 12 47 1.6 8.0 0.00 0.00 0.00 92 1018.3
20260506061539 12 42 6.4 17.7 0.00 0.00 0.00 91 1017.7
20260506044532 12 87 3.2 8.0 0.00 0.00 0.00 90 1017.3
20260506043030 12 66 3.2 9.7 0.00 0.00 0.00 90 1017.1
20260506041528 12 65 3.2 9.7 0.00 0.00 0.00 90 1017.0
20260506040027 12 63 4.8 12.9 0.00 0.00 0.00 90 1016.8
20260506034526 13 63 3.2 11.3 0.00 0.00 0.00 89 1016.7
20260506033025 13 59 4.8 11.3 0.00 0.00 0.00 88 1016.6
20260506031525 13 66 4.8 16.1 0.00 0.00 0.00 87 1016.3
20260506030030 13 89 4.8 14.5 0.00 0.00 0.00 86 1016.1
20260506024539 13 106 9.7 17.7 0.00 0.00 0.00 85 1016.0
20260506023022 14 85 11.3 19.3 0.00 0.00 0.00 84 1015.8
20260506021522 14 87 8.0 19.3 0.00 0.00 0.00 84 1015.7
20260506020021 15 93 8.0 25.7 0.00 0.00 0.00 83 1015.7
20260506014523 15 110 16.1 20.9 0.00 0.00 0.00 82 1015.8
20260506013020 15 104 12.9 20.9 0.00 0.00 0.00 81 1015.8
20260506011520 15 81 11.3 20.9 0.00 0.00 0.00 79 1015.7
20260506010020 15 91 11.3 22.5 0.00 0.00 0.00 79 1015.7
20260506004518 15 99 11.3 24.1 0.00 0.00 0.00 78 1015.7
20260506003019 15 121 12.9 24.1 0.00 0.00 0.00 77 1015.7
20260506001519 15 84 12.9 24.1 0.00 0.00 0.00 76 1015.6
20260506000017 16 89 12.9 17.7 0.00 0.00 0.00 77 1015.6
20260505234526 16 96 16.1 25.7 0.00 0.00 0.00 76 1015.6
20260505233020 16 87 11.3 24.1 0.00 0.00 0.00 77 1015.7
20260505231516 16 109 14.5 27.4 0.00 0.00 0.00 77 1015.6
20260505230032 16 92 12.9 29.0 0.00 0.00 0.00 78 1015.7
20260505224515 16 101 12.9 29.0 0.00 0.00 0.00 75 1015.8
20260505223014 16 108 9.7 29.0 0.00 0.00 0.00 77 1015.9
20260505221513 16 88 16.1 25.7 0.00 0.00 0.00 75 1016.0
20260505220012 16 61 11.3 24.1 0.00 0.00 0.00 76 1016.1
20260505214512 16 65 16.1 27.4 0.00 0.00 0.00 75 1016.3
20260505213012 16 66 14.5 25.7 0.00 0.00 0.00 76 1016.4
20260505211513 16 92 9.7 25.7 0.00 0.00 0.00 76 1016.5
20260505210013 15 109 14.5 25.7 0.00 0.00 0.00 76 1016.5
20260505204508 15 126 16.1 30.6 0.00 0.00 0.00 75 1016.5
20260505203010 15 96 14.5 27.4 0.00 0.00 0.00 74 1016.5
20260505201512 16 111 9.7 22.5 0.00 0.00 0.00 74 1016.4
20260505200007 15 69 12.9 24.1 0.00 0.00 0.00 73 1016.5
20260505194506 15 101 14.5 22.5 0.00 0.00 0.00 74 1016.6
20260505193005 15 82 9.7 24.1 0.00 0.00 0.00 74 1016.5